Location: Amon Carter Post Office
(32.8281°N, 97.0484°W)
Time: 11:34:26
(UTC+00:00)

Sich 1 - Pass Details

Date: 09 July 2022
Orbit: 593 x 622 km, 82.5° (Epoch: 10 August)

Event Time Altitude Azimuth Distance (km) Brightness Sun altitude
Exits shadow 10:13:26 15° 270° (W) 1,619 4.7 -13.9°
Maximum altitude 10:14:17 16° 284° (WNW) 1,579 4.8 -13.7°
Drops below altitude 10° 10:16:57 10° 323° (NW) 1,936 5.6 -13.3°
Sets 10:19:55 0° 345° (NNW) 2,839 6.8 -12.8°
